Palma de Mallorca, Spain

2:26 PM CET on January 22, 2017 (GMT +0100)
Palma De Mallorca

Weather History for LEPA - January, 2017

Change the Weather History Date:

Wednesday, January 11, 2017

  Actual Average Record
Temperature  
Mean Temperature 46 °F -  
Max Temperature 56 °F 57 °F 68 °F (1998)
Min Temperature 37 °F 39 °F 30 °F (1999)
Degree Days  
Heating Degree Days 18    
Moisture  
Dew Point 39 °F    
Average Humidity 65    
Maximum Humidity 93    
Minimum Humidity 36    
Precipitation  
Precipitation 0.02 in 0.05 in - ()
Sea Level Pressure  
Sea Level Pressure 30.09 in    
Wind  
Wind Speed 12 mph ()    
Max Wind Speed 32 mph    
Max Gust Speed 45 mph    
Visibility 7.2 miles    
Events Rain , Thunderstorm    
Averages and records for this station are not official NWS values.
T = Trace of Precipitation, MM = Missing Value Source: Averaged Metar Reports

Daily Weather History Graph

Daily Weather History Graph

Search for Another Location

Airport or City:

Trip Planner

Search our weather history database for the weather conditions in past years. The results will help you decide how hot, cold, wet, or windy it might be!

Date:

Astronomy

Jan. 11, 2017 Rise Set
Actual Time 8:09 AM CET 5:45 PM CET
Civil Twilight 7:39 AM CET 6:15 PM CET
Nautical Twilight 7:06 AM CET 6:48 PM CET
Astronomical Twilight 6:33 AM CET 7:20 PM CET
Moon 5:03 PM CET (1/11) 6:48 AM CET (1/11)
Length of Visible Light 10h 35m
Length of Day
9h 36m
Waxing Gibbous, 99% of the Moon is Illuminated
Jan 11
Waxing Gibbous
Jan 12
Full
Jan 19
Last Quarter
Jan 28
New
Feb 4
First Quarter

Hourly Weather History & Observations

Time (CET) Temp. Dew Point Humidity Pressure Visibility Wind Dir Wind Speed Gust Speed Precip Events Conditions
12:00 AM 49 °F 42 °F 70% 29.88 in - NE 3.5 mph - -  
12:00 AM 50.0 °F 42.8 °F 76% 29.86 in 6.2 mi ENE 3.5 mph - N/A   Partly Cloudy
12:30 AM 51.8 °F 41.0 °F 67% 29.86 in 6.2 mi NE 9.2 mph - N/A   Scattered Clouds
1:00 AM 52 °F 40 °F 55% 29.89 in 9 mi NE 16.1 mph - - Rain Light Drizzle
1:00 AM 51.8 °F 41.0 °F 67% 29.89 in 6.2 mi NE 17.3 mph - N/A   Drizzle
1:30 AM 50.0 °F 42.8 °F 76% 29.86 in 6.2 mi NE 10.4 mph - N/A   Mostly Cloudy
1:37 AM 50.0 °F 39.2 °F 66% 29.89 in 5.6 mi NE 32.2 mph 44.9 mph N/A Rain Rain Showers
1:46 AM 48.2 °F 39.2 °F 71% 29.89 in 5.0 mi NE 24.2 mph 40.3 mph N/A Rain , Thunderstorm Thunderstorms and Rain
2:00 AM 48 °F 40 °F 66% 29.91 in - North 15.0 mph - -   Unknown Precipitation
2:00 AM 48.2 °F 39.2 °F 71% 29.89 in 5.0 mi North 23.0 mph 38.0 mph N/A Rain Light Rain
2:30 AM 48.2 °F 39.2 °F 71% 29.89 in 6.2 mi NNE 10.4 mph - N/A   Scattered Clouds
3:00 AM 50 °F 37 °F 50% 29.91 in - NE 11.5 mph - -   Unknown Precipitation
3:00 AM 50.0 °F 37.4 °F 62% 29.89 in 6.2 mi NNE 11.5 mph - N/A   Scattered Clouds
3:30 AM 50.0 °F 33.8 °F 54% 29.89 in 6.2 mi NNE 13.8 mph 26.5 mph N/A   Scattered Clouds
4:00 AM 51 °F 34 °F 40% 29.92 in 11 mi NE 15.0 mph - -   Partly Cloudy
4:00 AM 50.0 °F 33.8 °F 54% 29.89 in 6.2 mi NNE 16.1 mph - N/A   Partly Cloudy
4:30 AM 51.8 °F 33.8 °F 50% 29.92 in 6.2 mi NE 11.5 mph - N/A   Partly Cloudy
5:00 AM 51 °F 32 °F 36% 29.92 in - NNE 20.7 mph - -  
5:00 AM 51.8 °F 32.0 °F 47% 29.92 in 6.2 mi NNE 11.5 mph - N/A   Partly Cloudy
5:30 AM 51.8 °F 33.8 °F 50% 29.92 in 6.2 mi NNE 16.1 mph - N/A   Partly Cloudy
6:00 AM 51 °F 34 °F 40% 29.95 in - NNE 17.3 mph - -  
6:00 AM 50.0 °F 35.6 °F 58% 29.92 in 6.2 mi NNE 11.5 mph - N/A   Partly Cloudy
6:30 AM 50.0 °F 37.4 °F 62% 29.95 in 6.2 mi NNE 19.6 mph 34.5 mph N/A   Scattered Clouds
7:00 AM 51 °F 38 °F 50% 29.98 in 11 mi NNE 19.6 mph - -   Partly Cloudy
7:00 AM 50.0 °F 37.4 °F 62% 29.95 in 6.2 mi NNE 17.3 mph 29.9 mph N/A   Scattered Clouds
7:30 AM 51.8 °F 39.2 °F 62% 29.98 in 6.2 mi NNE 19.6 mph - N/A   Scattered Clouds
8:00 AM 51 °F 39 °F 53% 30.01 in - NNE 16.1 mph - -  
8:00 AM 51.8 °F 39.2 °F 62% 30.01 in 6.2 mi NNE 19.6 mph - N/A   Scattered Clouds
8:30 AM 51.8 °F 39.2 °F 62% 30.01 in 6.2 mi NE 16.1 mph - N/A   Scattered Clouds
9:00 AM 52 °F 38 °F 49% 30.06 in - NE 16.1 mph - -  
9:00 AM 51.8 °F 39.2 °F 62% 30.04 in 6.2 mi NE 20.7 mph - N/A   Scattered Clouds
9:30 AM 51.8 °F 39.2 °F 62% 30.06 in 6.2 mi NE 19.6 mph - N/A   Scattered Clouds
10:00 AM 54 °F 39 °F 46% 30.08 in 17 mi NE 18.4 mph - -   Partly Cloudy
10:00 AM 53.6 °F 39.2 °F 58% 30.06 in 6.2 mi NE 18.4 mph - N/A   Scattered Clouds
10:30 AM 53.6 °F 41.0 °F 62% 30.09 in 6.2 mi NE 21.9 mph - N/A   Scattered Clouds
11:00 AM 54 °F 40 °F 48% 30.13 in - NE 20.7 mph - -  
11:00 AM 53.6 °F 41.0 °F 62% 30.12 in 6.2 mi NE 20.7 mph 36.8 mph N/A   Scattered Clouds
11:30 AM 53.6 °F 41.0 °F 62% 30.15 in 6.2 mi NE 26.5 mph - N/A   Scattered Clouds
12:00 PM 55 °F 40 °F 47% 30.17 in - NE 26.5 mph - -  
12:00 PM 55.4 °F 41.0 °F 58% 30.15 in 6.2 mi NE 25.3 mph - N/A   Scattered Clouds
12:30 PM 55.4 °F 42.8 °F 63% 30.15 in 6.2 mi NE 24.2 mph - N/A   Mostly Cloudy
1:00 PM 55 °F 42 °F 51% 30.18 in 17 mi ENE 18.4 mph - -   Partly Cloudy
1:00 PM 55.4 °F 42.8 °F 63% 30.15 in 6.2 mi ENE 18.4 mph - N/A   Mostly Cloudy
1:30 PM 55.4 °F 42.8 °F 63% 30.15 in 6.2 mi NE 18.4 mph - N/A   Mostly Cloudy
2:00 PM 56 °F 41 °F 45% 30.17 in - NE 18.4 mph - -   Unknown Precipitation
2:00 PM 55.4 °F 42.8 °F 63% 30.15 in 6.2 mi NE 17.3 mph - N/A   Scattered Clouds
2:30 PM 55.4 °F 42.8 °F 63% 30.15 in 6.2 mi NE 18.4 mph - N/A   Scattered Clouds
3:00 PM 56 °F 41 °F 46% 30.18 in - ENE 16.1 mph - -  
3:00 PM 55.4 °F 42.8 °F 63% 30.15 in 6.2 mi ENE 13.8 mph - N/A   Scattered Clouds
3:30 PM 55.4 °F 42.8 °F 63% 30.18 in 6.2 mi ENE 15.0 mph - N/A   Scattered Clouds
4:00 PM 55 °F 41 °F 48% 30.21 in 19 mi ENE 13.8 mph - -   Scattered Clouds
4:00 PM 55.4 °F 41.0 °F 58% 30.18 in 6.2 mi ENE 12.7 mph - N/A   Partly Cloudy
4:30 PM 53.6 °F 41.0 °F 62% 30.18 in 6.2 mi East 11.5 mph - N/A   Partly Cloudy
5:00 PM 54 °F 40 °F 48% 30.22 in - East 10.4 mph - -  
5:00 PM 53.6 °F 41.0 °F 62% 30.21 in 6.2 mi ENE 8.1 mph - N/A   Partly Cloudy
5:30 PM 51.8 °F 41.0 °F 67% 30.21 in 6.2 mi ENE 8.1 mph - N/A   Partly Cloudy
6:00 PM 47 °F 40 °F 69% 30.25 in - East 5.8 mph - -  
6:00 PM 48.2 °F 39.2 °F 71% 30.24 in 6.2 mi East 2.3 mph - N/A   Partly Cloudy
6:30 PM 48.2 °F 41.0 °F 76% 30.24 in 6.2 mi ESE 3.5 mph - N/A   Partly Cloudy
7:00 PM 45 °F 40 °F 75% 30.26 in 9 mi East 3.5 mph - -   Scattered Clouds
7:00 PM 44.6 °F 39.2 °F 81% 30.24 in 6.2 mi ESE 1.2 mph - N/A   Partly Cloudy
7:30 PM 42.8 °F 39.2 °F 87% 30.24 in 6.2 mi ENE 2.3 mph - N/A   Partly Cloudy
8:00 PM 43 °F 38 °F 78% 30.27 in - North 2.3 mph - -  
8:00 PM 42.8 °F 39.2 °F 87% 30.24 in 6.2 mi Variable 2.3 mph - N/A   Partly Cloudy
8:30 PM 42.8 °F 39.2 °F 87% 30.27 in 6.2 mi Calm Calm - N/A   Partly Cloudy
9:00 PM 41 °F 38 °F 83% 30.29 in - East 1.2 mph - -  
9:00 PM 41.0 °F 37.4 °F 87% 30.27 in 6.2 mi Calm Calm - N/A   Partly Cloudy
9:30 PM 39.2 °F 37.4 °F 93% 30.27 in - Variable 1.2 mph - N/A   Clear
10:00 PM 39 °F 37 °F 88% 30.30 in 12 mi East 2.3 mph - -   Clear
10:00 PM 39.2 °F 37.4 °F 93% 30.27 in - Calm Calm - N/A   Clear
10:30 PM 39.2 °F 37.4 °F 93% 30.30 in - ENE 2.3 mph - N/A   Clear
11:00 PM 38 °F 35 °F 87% 30.31 in - ENE 2.3 mph - -  
11:00 PM 37.4 °F 35.6 °F 93% 30.30 in - Calm Calm - N/A   Clear
11:30 PM 37.4 °F 35.6 °F 93% 30.30 in - ENE 2.3 mph - N/A   Clear